Location: Dvor Gunda
(48.5623°N, 19.0568°E)
Time: 07:18:39
(UTC+00:00)

Daily predictions for brighter satellites

Satellite Brightness Start Highest point End
(mag) Time Altitude Azimuth Time Altitude Azimuth Time Altitude Azimuth
NOAA 12 4.1 15:52:45 10° SSE 15:58:01 73° ENE 16:03:21 10° N
CZ-4C R/B 3.7 15:58:34 10° N 16:01:46 53° WNW 16:05:01 10° SSW
Cosmos 1953 Rocket 3.9 15:59:45 10° N 16:03:58 43° ENE 16:08:12 10° SSE
Cosmos 1697 Rocket 4.4 16:02:23 10° ESE 16:04:14 12° E 16:06:04 10° ENE
Radarsat Rocket 4.4 15:59:38 10° S 16:05:40 70° WSW 16:11:29 10° NNW
Cosmos 1331 Rocket 4.1 16:01:00 10° S 16:06:00 53° ESE 16:11:02 10° NNE
Cosmos 1300 3.3 16:04:18 10° SSE 16:07:47 35° E 16:11:18 10° NNE
Cosmos 2058 Rocket 4.1 16:05:07 10° SE 16:08:51 27° E 16:12:38 10° NNE
SL-4 R/B 2.1 16:06:21 10° W 16:09:47 51° N 16:13:25 10° ENE
SeaSat 1 4.0 16:07:25 10° ENE 16:10:32 17° NE 16:13:39 10° N
USA 215 3.9 16:05:06 10° ENE 16:11:10 43° N 16:17:15 10° WNW
ATLAS 2AS CENTAUR R/B 4.0 16:04:55 10° NW 16:11:27 28° NNE 16:17:39 10° ENE
H-2A R/B 4.2 16:07:47 10° S 16:11:59 41° W 16:16:17 10° NNW
Cosmos 1703 4.2 16:08:26 10° NNW 16:12:18 54° W 16:16:09 10° S
USA 305 3.5 16:09:01 10° WNW 16:13:11 45° NNE 16:17:18 10° E
Cosmos 1346 Rocket 4.3 16:10:40 10° NNE 16:13:21 17° ENE 16:16:01 10° ESE
CZ-2D R/B 4.2 16:10:28 10° SE 16:13:40 26° ENE 16:16:52 10° N
Cosmos 1953 4.0 16:10:48 10° SW 16:14:28 36° WNW 16:18:10 10° N
NOAA 11 4.2 16:09:12 10° SSE 16:14:34 65° ENE 16:19:57 10° N
Cosmos 44 3.5 16:10:41 10° SSW 16:14:59 48° ESE 16:19:35 10° NE
Cosmos 1825 4.2 16:15:26 10° NE 16:16:15 11° ENE 16:16:47 10° ENE
USA 306 3.4 16:15:27 10° WNW 16:19:37 47° NNE 16:23:25 12° E
Cosmos 968 Rocket 4.0 16:17:59 10° N 16:22:50 37° ENE 16:27:38 10° SE
Cosmos 2369 Rocket 4.2 16:19:57 10° W 16:24:34 25° NW 16:29:13 10° N
ERS-2 2.0 16:21:18 10° NNE 16:24:58 78° ESE 16:28:36 10° SSW
Aureole 3 Rocket 3.7 16:21:18 10° SSE 16:25:02 37° E 16:30:03 10° NNE
SAR-Lupe-4 4.0 16:21:38 10° NNE 16:25:04 41° E 16:28:28 10° S
Cosmos 2297 Rocket 2.3 16:19:48 10° NNW 16:25:24 57° ENE 16:30:58 10° SE
Meteor 1-11 4.5 16:20:28 10° NNW 16:26:12 78° W 16:31:57 10° S
In-Cosmos 22 Rocket 4.3 16:23:11 10° N 16:28:21 46° ENE 16:33:34 10° SE
Cosmos 1340 3.0 16:25:42 10° N 16:29:19 42° ENE 16:32:55 10° SE
COSMO-SKYMED 1 3.0 16:26:51 10° NNE 16:30:59 41° E 16:35:06 10° S
FengYun 1-2 T 4.4 16:26:53 10° SSE 16:32:34 84° WSW 16:38:14 10° NNW
H-2A R/B 3.4 16:28:57 10° N 16:32:52 40° WNW 16:36:43 10° SW
Cosmos 1110 Rocket 4.1 16:29:19 10° SSW 16:34:34 83° WNW 16:39:50 10° NNE
Cosmos 1302 Rocket 4.2 16:31:51 10° S 16:36:56 52° ESE 16:42:05 10° NNE
NOSS 2-2 (C) 4.5 16:32:38 10° NW 16:38:04 87° NE 16:45:41 10° SE
Lacrosse 5 3.1 16:35:53 10° WNW 16:40:26 32° N 16:44:18 13° NE
Timation 2 Rocket 4.3 16:33:50 10° NNW 16:40:27 79° WSW 16:47:15 10° SSE
Cosmos 1825 Rocket 4.4 16:36:22 10° NNW 16:40:45 56° W 16:45:04 10° S
ADEOS Rocket 4.1 16:36:47 10° N 16:42:52 51° WNW 16:49:36 10° SW
SAR-Lupe-1 4.0 16:39:24 10° NNE 16:42:58 63° ESE 16:46:32 10° S
Cosmos 1486 Rocket 4.1 16:37:53 10° NNW 16:43:09 54° ENE 16:48:21 10° SE
Cosmos 292 Rocket 3.7 16:39:02 10° SSW 16:43:49 86° ESE 16:48:41 10° NNE
Aureole 3 2.8 16:41:06 10° S 16:44:08 49° E 16:47:02 10° NNE
Okean O Rocket 3.3 16:41:03 10° SSW 16:45:07 37° W 16:49:11 10° NNW
YAOGAN 1 2.9 16:42:48 10° SE 16:46:51 41° ENE 16:50:56 10° N
FALCON 9 DEB 3.9 16:43:56 10° WNW 16:47:10 39° N 16:48:52 22° ENE
Meteor 2-8 Rocket 4.4 16:41:19 10° S 16:47:19 61° E 16:53:22 10° NNE
USA 281 4.3 16:41:19 10° S 16:47:36 48° WSW 16:53:56 10° NW
ERBS 4.3 16:46:58 10° NW 16:49:28 19° N 16:51:09 14° NE
FALCON 9 DEB 3.0 16:46:22 10° SW 16:49:33 64° SSE 16:51:05 27° ENE
Cosmos 1503 Rocket 4.5 16:47:57 10° N 16:52:52 39° ENE 16:56:47 15° ESE
CZ-2C R/B 3.4 16:47:33 10° SE 16:53:09 52° ENE 16:58:34 10° N
FALCON 9 DEB 2.9 16:50:37 10° SW 16:53:49 72° SSE 16:55:10 31° ENE
SKYMED 3 4.5 16:50:44 10° NNE 16:55:05 72° ESE 16:59:25 10° S
Cosmos 2219 3.3 16:49:54 10° NNW 16:55:42 86° WSW 17:01:28 10° SSE
Cosmos 1455 3.1 16:53:11 10° SSE 16:56:10 26° E 16:56:10 26° E
Cosmos 1726 Rocket 3.9 16:53:13 10° SSW 16:57:32 67° W 17:01:56 10° N
Cosmos 1553 Rocket 4.0 16:54:08 10° S 17:00:23 64° E 17:06:36 10° NNE
USA 307 3.0 16:58:26 10° WNW 17:02:42 64° NNE 17:04:41 30° E
Meteor 2-10 Rocket 3.7 16:58:21 10° SSE 17:03:23 45° E 17:08:16 10° NNE
Cosmos 1354 Rocket 4.4 16:59:24 10° NNW 17:04:25 43° ENE 17:07:26 22° ESE
Cosmos 2082 3.8 16:58:46 10° NNW 17:04:25 54° ENE 17:08:49 17° SE
Cosmos 2228 4.3 17:00:40 10° SSW 17:04:42 42° WNW 17:08:48 10° N
Cosmos 1939 Rocket 3.2 17:00:55 10° S 17:04:51 64° WSW 17:08:46 10° NNW
CZ-4B R/B 3.1 17:01:57 10° N 17:04:55 33° WNW 17:07:47 10° SW
FALCON 9 DEB 2.8 17:02:33 10° WSW 17:05:48 83° SSE 17:06:44 43° ENE
USA 308 2.9 17:03:16 10° WNW 17:07:33 67° NNE 17:09:20 33° E
ATLAS 5 CENTAUR R/B 4.0 17:06:59 10° NW 17:09:57 16° N 17:13:10 10° NNE
Helios 1A Rocket 3.0 17:07:51 10° SSE 17:11:59 79° WSW 17:16:06 10° NNW
Cosmos 1992 Rocket 4.2 17:11:07 10° S 17:16:04 46° ESE 17:19:35 18° NE
ARGOS 3.4 17:13:10 20° SE 17:16:36 44° ENE 17:21:45 10° N
FALCON 9 DEB 2.9 17:14:15 10° WSW 17:17:28 80° NNW 17:17:56 61° NE
Okean-O 2.7 17:14:00 10° S 17:18:26 79° WSW 17:22:54 10° NNW
Cosmos 2369 4.1 17:13:50 10° S 17:19:05 39° ESE 17:21:10 29° ENE
SKYMED 2 3.9 17:14:48 10° N 17:19:08 67° WNW 17:23:26 10° SSW
Cosmos 1689 Rocket 3.0 17:17:36 10° N 17:20:25 48° WNW 17:23:12 10° SSW
Cosmos 2151 4.5 17:17:31 10° N 17:19:28 21° NNE 17:19:28 21° NNE
Meteor 2-15 4.3 17:15:11 10° S 17:21:18 72° E 17:27:25 10° NNE
Cosmos 1656 3.6 17:17:01 10° SSW 17:22:35 84° ESE 17:28:16 10° NNE
Cosmos 1400 Rocket 3.6 17:20:57 10° SSW 17:24:58 53° WNW 17:29:00 10° N
Cosmos 1745 Rocket 3.9 17:18:41 10° N 17:25:00 82° E 17:31:21 10° S
H-2A R/B 2.1 17:20:48 10° SSE 17:26:10 68° ENE 17:31:37 10° N
Ariane Rocket 4.0 17:27:38 28° NE 17:27:38 28° NE 17:31:19 10° N
PSLV R/B 4.3 17:23:15 10° N 17:27:25 65° WNW 17:31:31 10° SSW
GEOS 3 Rocket 3.6 17:24:33 28° SE 17:27:28 77° NE 17:32:52 10° NW
Geosat 4.1 17:26:30 30° NE 17:28:47 53° ESE 17:33:41 10° SSW
CZ-4 R/B 1.7 17:24:58 10° S 17:28:49 63° W 17:32:40 10° NNW
Cosmos 2227 Rocket 2.6 17:24:00 10° NNW 17:29:36 63° WSW 17:35:10 10° SSE
Cosmos 2058 2.8 17:25:38 10° N 17:29:45 86° W 17:33:51 10° S
Cosmos 1892 3.3 17:27:13 10° NNW 17:31:03 57° W 17:34:52 10° S
Cosmos 220 Rocket 3.9 17:28:32 10° SSW 17:32:52 67° ESE 17:34:08 44° NE
CSL-04 Rocket 3.6 17:28:56 10° SSE 17:34:29 80° ENE 17:40:01 10° NNW
Timation 1 Rocket 4.3 17:29:07 10° NNW 17:35:07 63° ENE 17:37:24 38° ESE
Cosmos 1408 2.6 17:31:38 10° NNW 17:35:17 76° W 17:37:15 26° S
Cosmos 2263 Rocket 3.0 17:30:20 10° NNW 17:35:25 32° NE 17:35:34 32° NE
BREEZE-M R/B 2.9 17:31:01 10° W 17:37:07 88° N 17:37:09 87° NE
Meteor 2-1 Rocket 4.0 17:36:13 10° S 17:41:43 83° E 17:47:17 10° NNE
NOSS 3-4 (A) 4.0 17:35:12 10° NW 17:41:53 53° NE 17:44:12 40° E
NOSS 3-4 (C) 4.0 17:35:19 10° NW 17:41:59 53° NE 17:44:16 40° E
CZ-4C R/B 3.7 17:36:31 10° NW 17:42:30 33° NNE 17:44:25 30° NE
Cosmos 1697 Rocket 2.5 17:41:34 10° SSW 17:47:09 72° ESE 17:49:37 34° NE
SeaSat 1 2.3 17:46:28 57° ESE 17:47:19 71° ENE 17:52:16 10° NNW
SL-4 R/B 2.2 17:46:01 10° WNW 17:49:04 57° NW 17:49:04 57° NW
Cosmos 1346 Rocket 3.7 17:46:09 10° NNW 17:50:00 48° W 17:53:51 10° S
CRYOSAT 2 4.4 17:46:45 10° N 17:51:39 80° W 17:56:30 10° S
NOSS 3-3 (A) 3.8 17:46:23 10° SSW 17:52:10 71° SE 17:54:18 43° NE
NOSS 3-3 (C) 3.8 17:46:29 10° SSW 17:52:18 71° SE 17:54:24 43° ENE
Cosmos 1825 2.6 17:48:30 10° NNW 17:51:38 57° NNW 17:51:38 57° NNW
USA 305 2.9 17:49:08 10° WNW 17:53:26 71° SSW 17:53:27 71° SSW
USA 215 3.5 17:51:39 42° ENE 17:53:34 57° NNE 17:59:57 10° NW
Cosmos 1709 Rocket 3.9 17:48:23 10° N 17:54:48 80° E 17:59:42 18° SSE
Cosmos 1315 Rocket 3.0 17:52:09 10° SSW 17:56:05 68° WNW 17:56:20 66° NW
USA 306 3.2 17:55:33 10° WNW 17:59:35 64° SW 17:59:35 64° SW
BREEZE-M R/B 3.9 17:59:06 10° WNW 18:03:35 84° SSW 18:05:18 54° ESE
ATLAS 2AS CENTAUR R/B 2.9 17:56:36 10° NW 18:04:06 57° NE 18:05:17 51° ENE
SJ 16-02 3.9 18:04:05 10° N 18:04:08 10° N 18:04:08 10° N
MOS 1 Rocket 3.6 18:03:24 10° N 18:08:02 67° WNW 18:12:55 10° SSW
Cosmos 2297 Rocket 4.2 18:04:26 10° NW 18:09:05 27° WSW 18:13:43 10° SSW
Cosmos 1980 Rocket 3.2 18:04:18 10° S 18:07:19 32° S 18:07:19 32° S
IRS-1A Rocket 4.3 18:10:35 59° NNE 18:10:35 59° NNE 18:15:22 10° N
Cosmos 1076 Rocket 4.5 18:05:52 10° NNW 18:09:56 45° W 18:11:35 30° SW
Cosmos 883 Rocket 4.4 18:05:17 10° S 18:11:27 86° W 18:17:37 10° N
Cosmos 1777 Rocket 4.4 18:06:50 10° NNW 18:10:51 49° N 18:10:51 49° N
Cosmos 2315 Rocket 3.8 18:09:16 10° S 18:15:27 84° E 18:21:42 10° N
Lacrosse 5 3.0 18:19:39 10° NW 18:23:30 36° N 18:23:30 36° N
Cosmos 2360 4.2 18:20:21 10° SSW 18:26:05 78° WNW 18:26:15 77° NW
Cosmos 1455 4.4 18:28:44 10° SW 18:31:13 24° W 18:31:13 24° W
Meteor 2-3 Rocket 4.3 18:30:28 10° NNW 18:34:43 52° N 18:34:43 52° N
ATLAS 5 CENTAUR R/B 4.2 18:53:06 10° NNW 18:55:01 16° N 18:55:01 16° N
H-2A R/B 4.5 19:02:09 10° SW 19:06:05 20° W 19:10:04 10° NW
Cosmos 2263 Rocket 3.7 19:14:06 10° NW 19:17:15 32° NW 19:17:15 32° NW
CZ-4C R/B 3.6 19:24:53 10° NW 19:29:36 48° NW 19:29:36 48° NW
USA 215 4.3 19:39:00 40° WNW 19:39:00 40° WNW 19:43:04 10° WNW
ATLAS 2AS CENTAUR R/B 4.1 19:48:01 10° NW 19:52:43 35° WNW 19:52:43 35° WNW
